Weather History for Shannon, Ireland

Change the Weather History Date:

Friday, September 6, 2013

  Actual Average Record
Temperature  
Mean Temperature 52 °F -  
Max Temperature 59 °F 62 °F 71 °F (2004)
Min Temperature 46 °F 49 °F 46 °F (2013)
Degree Days  
Heating Degree Days 12    
Growing Degree Days 2 (Base 50)    
Moisture  
Dew Point 46 °F    
Average Humidity 82    
Maximum Humidity 100    
Minimum Humidity 50    
Precipitation  
Precipitation 0.16 in 0.11 in - ()
Sea Level Pressure  
Sea Level Pressure 29.95 in    
Wind  
Wind Speed 7 mph ()    
Max Wind Speed 21 mph    
Max Gust Speed -    
Visibility 6.3 miles    
Events Rain , Thunderstorm    
Averages and records for this station are not official NWS values.
T = Trace of Precipitation, MM = Missing Value Source: Averaged Metar Reports

Daily Weather History Graph

Daily Weather History Graph

Search for Another Location

Airport:

Trip Planner

Search our weather history database for the weather conditions in past years. The results will help you decide how hot, cold, wet, or windy it might be!

Date:

Astronomy

Sep. 06, 2013 Rise Set
Actual Time 6:54 AM IST 8:12 PM IST
Civil Twilight 6:19 AM IST 8:47 PM IST
Nautical Twilight 5:36 AM IST 9:30 PM IST
Astronomical Twilight 4:48 AM IST 10:17 PM IST
Moon 8:08 AM IST (9/6) 8:10 PM IST (9/6)
Length of Visible Light 14h 27m
Length of Day
13h 17m
New Moon, 1% of the Moon is Illuminated
Sep 6
New Moon
Sep 12
First Quarter
Sep 19
Full
Sep 27
Last Quarter
Oct 5
New

Hourly Weather History & Observations

Time (IST) Temp. Windchill Dew Point Humidity Pressure Visibility Wind Dir Wind Speed Gust Speed Precip Events Conditions
12:00 AM 48.2 °F - 44.6 °F 87% 29.95 in 6.2 mi NW 4.6 mph - N/A   Mostly Cloudy
12:30 AM 48.2 °F - 44.6 °F 87% 29.95 in 6.2 mi WNW 3.5 mph - N/A   Mostly Cloudy
1:00 AM 49 °F - 46 °F 83% 29.96 in 12 mi NW 4.5 mph - - Rain Light Rain Showers
1:00 AM 48.2 °F - 46.4 °F 93% 29.95 in 6.2 mi NW 4.6 mph - N/A   Mostly Cloudy
1:30 AM 48.2 °F - 46.4 °F 93% 29.95 in 6.2 mi North 4.6 mph - N/A   Mostly Cloudy
2:00 AM 48.2 °F - 46.4 °F 93% 29.95 in 6.2 mi WSW 3.5 mph - N/A   Mostly Cloudy
2:30 AM 50.0 °F - 46.4 °F 87% 29.95 in 6.2 mi NW 5.8 mph - N/A   Mostly Cloudy
3:00 AM 50.0 °F - 46.4 °F 87% 29.92 in 6.2 mi WNW 4.6 mph - N/A Rain Light Rain Showers
3:30 AM 48.2 °F - 46.4 °F 93% 29.92 in 6.2 mi NNW 6.9 mph - N/A Rain Light Rain Showers
4:00 AM 48.2 °F - 46.4 °F 93% 29.92 in 6.2 mi NNW 6.9 mph - N/A Rain Light Rain Showers
4:30 AM 48.2 °F - 46.4 °F 93% 29.95 in 6.2 mi North 8.1 mph - N/A Rain Light Rain Showers
5:00 AM 48.2 °F - 46.4 °F 93% 29.95 in 6.2 mi NW 8.1 mph - N/A Rain Light Rain Showers
5:30 AM 48.2 °F - 46.4 °F 93% 29.95 in 6.2 mi NW 6.9 mph - N/A Rain Light Rain
6:00 AM 48.2 °F - 46.4 °F 93% 29.95 in 6.2 mi North 5.8 mph - N/A Rain Light Rain
6:30 AM 46.4 °F 43.5 °F 46.4 °F 100% 29.95 in 6.2 mi NNW 5.8 mph - N/A Rain Light Rain
7:00 AM 48.2 °F - 46.4 °F 93% 29.95 in 6.2 mi NNW 5.8 mph - N/A   Mostly Cloudy
7:30 AM 48.2 °F - 46.4 °F 93% 29.95 in 6.2 mi NNW 8.1 mph - N/A   Mostly Cloudy
8:00 AM 48.2 °F - 46.4 °F 93% 29.95 in 6.2 mi NW 5.8 mph - N/A   Mostly Cloudy
8:30 AM 48.2 °F - 46.4 °F 93% 29.95 in 6.2 mi North 5.8 mph - N/A   Mostly Cloudy
9:00 AM 48.2 °F - 46.4 °F 93% 29.95 in 6.2 mi NNW 6.9 mph - N/A   Scattered Clouds
9:30 AM 50.0 °F - 46.4 °F 87% 29.95 in 6.2 mi NNW 8.1 mph - N/A   Partly Cloudy
10:00 AM 51.8 °F - 46.4 °F 82% 29.95 in 6.2 mi North 8.1 mph - N/A   Partly Cloudy
10:30 AM 53.6 °F - 46.4 °F 77% 29.95 in 6.2 mi NNW 11.5 mph - N/A   Scattered Clouds
11:00 AM 53.6 °F - 46.4 °F 77% 29.95 in 6.2 mi North 11.5 mph - N/A   Partly Cloudy
11:30 AM 55.4 °F - 44.6 °F 67% 29.95 in 6.2 mi North 10.4 mph - N/A   Partly Cloudy
12:00 PM 55.4 °F - 46.4 °F 72% 29.95 in 6.2 mi North 12.7 mph - N/A   Partly Cloudy
12:30 PM 55.4 °F - 44.6 °F 67% 29.95 in 6.2 mi NNW 11.5 mph - N/A   Mostly Cloudy
1:00 PM 57 °F - 44 °F 50% 29.96 in 31 mi NNW 13.4 mph - -   Mostly Cloudy
1:00 PM 57.2 °F - 42.8 °F 59% 29.95 in 6.2 mi NNW 12.7 mph - N/A   Scattered Clouds
1:30 PM 59.0 °F - 44.6 °F 59% 29.95 in 6.2 mi NNW 12.7 mph - N/A   Scattered Clouds
2:00 PM 57.2 °F - 42.8 °F 59% 29.95 in 6.2 mi North 10.4 mph - N/A   Scattered Clouds
2:30 PM 53.6 °F - 42.8 °F 67% 29.95 in 6.2 mi NNW 19.6 mph - N/A   Mostly Cloudy
3:00 PM 51.8 °F - 46.4 °F 82% 29.95 in 6.2 mi NW 6.9 mph - N/A   Mostly Cloudy
3:30 PM 55.4 °F - 46.4 °F 72% 29.95 in 6.2 mi North 11.5 mph - N/A Rain Light Rain Showers
4:00 PM 57.2 °F - 44.6 °F 63% 29.95 in 6.2 mi NW 11.5 mph - N/A Rain Light Rain Showers
4:30 PM 57.2 °F - 44.6 °F 63% 29.92 in 6.2 mi NNW 11.5 mph - N/A   Partly Cloudy
5:00 PM 55.4 °F - 46.4 °F 72% 29.95 in 6.2 mi NW 10.4 mph - N/A   Scattered Clouds
5:30 PM 53.6 °F - 44.6 °F 72% 29.95 in 3.1 mi NNE 20.7 mph - N/A Rain , Thunderstorm Rain Showers
6:00 PM 50.0 °F - 46.4 °F 87% 29.95 in 6.2 mi NNE 6.9 mph - N/A   Mostly Cloudy
6:30 PM 51.8 °F - 48.2 °F 88% 29.95 in 6.2 mi NW 6.9 mph - N/A   Mostly Cloudy
7:00 PM 52 °F - 46 °F 75% 29.97 in 25 mi NNW 8.9 mph - -   Partly Cloudy
7:00 PM 51.8 °F - 46.4 °F 82% 29.95 in 6.2 mi NNW 8.1 mph - N/A   Scattered Clouds
7:30 PM 55.4 °F - 48.2 °F 77% 29.95 in 6.2 mi NNE 17.3 mph - N/A   Scattered Clouds
8:00 PM 53.6 °F - 46.4 °F 77% 29.98 in 6.2 mi NNW 9.2 mph - N/A   Scattered Clouds
8:30 PM 53.6 °F - 46.4 °F 77% 29.98 in 6.2 mi NNW 10.4 mph - N/A   Scattered Clouds
9:00 PM 51.8 °F - 46.4 °F 82% 29.98 in 6.2 mi NNW 9.2 mph - N/A   Partly Cloudy
9:30 PM 50.0 °F - 46.4 °F 87% 29.98 in 6.2 mi NW 9.2 mph - N/A   Partly Cloudy
10:00 PM 50.0 °F - 46.4 °F 87% 29.98 in 6.2 mi NW 8.1 mph - N/A   Partly Cloudy
10:30 PM 50.0 °F - 46.4 °F 87% 29.98 in - NW 10.4 mph - N/A   Clear
11:00 PM 48.2 °F - 46.4 °F 93% 29.98 in - NW 9.2 mph - N/A   Clear
11:30 PM 48.2 °F - 44.6 °F 87% 29.98 in - WNW 8.1 mph - N/A   Clear